www.pogodaiklimat.ru
ПОГОДА в Пангкалан-Буне
Время
(UTC), дата
06 29.05
09 29.05
12 29.05
15 29.05
18 29.05
21 29.05
00 30.05
03 30.05
06 30.05
09 30.05
12 30.05
15 30.05
18 30.05
21 30.05
00 31.05
03 31.05
06 31.05
09 31.05
12 31.05
15 31.05
18 31.05
21 31.05
00 1.06
03 1.06
06 1.06
09 1.06
12 1.06
15 1.06
18 1.06
21 1.06
00 2.06
03 2.06
06 2.06
09 2.06
12 2.06
15 2.06
18 2.06
21 2.06
00 3.06
03 3.06
06 3.06
09 3.06
12 3.06
15 3.06
18 3.06
21 3.06
00 4.06
03 4.06
06 4.06
09 4.06
12 4.06
15 4.06
18 4.06
21 4.06
00 5.06
03 5.06
Ветер
(напр.,м/с)
Видим. Явления Облачность Т
(С)
Тd
(С)
f
(%)
Тe
(С)
Тes
(С)
Комфортность P
(гПа)
Po
(гПа)
Тmin
(С)
Tmax
(С)
R
(мм)
R24
(мм)
S
(см)
В 2 10 км 8/5 360 м
[Sc As trans Ci fib]
+32.2 +22.9 58 +42 +48 опасность
перегрева
1010.7 1007.5
СВ 3 10 км 8/5 360 м
[Cu med, cong As op Ci fib]
+32.4 +23.5 59 +43 +44 опасность
перегрева
1009.2 1005.9
штиль 0 7000 м 8/5 360 м
[Cu med, cong As op Ci fib]
+29.2 +25.8 82 +44 +44 опасность
перегрева
1011.7 1008.4 +33.0
ЮВ 2 6000 м зарница 8/5 360 м
[Cb calv As op Ci fib]
+27.2 +24.5 85 +38 +38 очень
душно
1013.0 1009.8
штиль 0 6000 м 8/5 360 м
[Cu med, cong As op Ci fib]
+26.0 +24.2 90 +36 +36 очень
душно
1012.4 1009.1
штиль 0 6000 м 8/5 360 м
[Cu med, cong As op Ci fib]
+25.4 +24.0 92 +35 +35 очень
душно
1012.0 1008.8
штиль 0 10 км 4/3 360 м
[Sc As trans Ci fib]
+26.1 +24.7 92 +37 +39 очень
душно
1012.1 1008.8 +24.9
В 2 10 км 8/6 360 м
[Sc As trans Ci fib]
+31.1 +24.7 69 +44 +49 опасность
перегрева
1012.1 1008.9
штиль 0 10 км в посл. час дождь 8/6 360 м
[Cb calv As trans Ci fib]
+31.6 +25.1 69 +46 +52 опасность
перегрева
1009.7 1006.5 0.0
З 2 5000 м гроза, ливневой дождь 9/6 360 м
[Cb cap As trans Ci fib]
+26.4 +24.9 91 +38 +38 очень
душно
1009.9 1006.6 6
штиль 0 8000 м 8/5 330 м
[Cb calv As trans Ci fib]
+25.4 +24.4 94 +35 +35 очень
душно
1011.8 1008.6 +33.4 0.7
ЮВ 1 5000 м 8/5 360 м
[Cu Sc As op Ci fib]
+25.6 +24.9 96 +36 +36 очень
душно
1012.9 1009.6
штиль 0 5000 м 5/4 360 м
[Sc As op Ci fib]
+25.4 +24.2 93 +35 +35 очень
душно
1011.8 1008.6
штиль 0 5000 м 5/4 360 м
[Sc As op Ci fib]
+25.0 +24.0 94 +34 +34 очень
душно
1011.2 1008.0
штиль 0 10 км 4/1 360 м
[Sc As op Ci fib]
+26.2 +24.7 91 +37 +39 очень
душно
1013.2 1009.9 +24.4 7
В 3 10 км 6/5 360 м
[Cu hum As trans Ci fib]
+31.1 +24.4 68 +44 +49 опасность
перегрева
1013.1 1009.9
ЮЗ 2 3000 м слаб. дождь 9/6 360 м
[Cb calv As op Ci fib]
+26.6 +24.3 87 +37 +41 очень
душно
1010.2 1007.0 7
СВ 3 2000 м гроза, ливневой дождь 10/8 270 м
[Cb cap As op Ci sp]
+26.6 +25.1 91 +38 +38 очень
душно
1010.5 1007.3 2
штиль 0 7000 м {гроза, дождь} 9/6 360 м
[Sc As op Ci sp]
+24.8 +24.4 98 +35 +35 очень
душно
1012.1 1008.9 +33.1 19
штиль 0 7000 м 9/6 360 м
[Sc As op Ci sp]
+24.6 +24.2 98 +34 +34 очень
душно
1013.2 1010.0
штиль 0 4000 м дымка 8/5 360 м
[Sc As op Ci sp]
+23.7 +23.5 99 +32 +32 очень
душно
1012.0 1008.8
штиль 0 2000 м дымка 8/5 360 м
[Sc As op Ci sp]
+24.0 +23.9 99 +33 +33 очень
душно
1011.4 1008.2
СЗ 3 7000 м 9/6 270 м
[Frnb As op Ci fib]
+24.7 +24.2 97 +34 +35 очень
душно
1013.2 1010.0 +23.8 28
штиль 0 9000 м 9/5 330 м
[Sc As op Ci fib]
+29.0 +25.5 81 +43 +49 опасность
перегрева
1012.5 1009.2
Ю 3 9000 м осадки на расстоянии 9/6 360 м
[Cb calv As op Ci fib]
+31.1 +25.0 70 +45 +48 опасность
перегрева
1010.0 1006.8
штиль 0 7000 м слаб. дождь {гроза} 9/6 300 м
[Cb calv As op Ci sp]
+26.8 +24.4 87 +38 +39 очень
душно
1009.6 1006.4 1
штиль 0 5000 м слаб. дождь {гроза} 10/6 300 м
[Sc Ac As Ci sp]
+25.4 +24.7 96 +36 +36 очень
душно
1012.3 1009.1 +31.8 1
СЗ 2 6000 м {дождь} 10/6 300 м
[Sc Ac As Ci sp]
+24.7 +24.3 98 +34 +34 очень
душно
1013.2 1010.0 0.6
СЗ 2 6000 м {дождь} 10/6 360 м
[Sc Ac As Ci sp]
+24.2 +23.8 98 +33 +33 очень
душно
1012.3 1009.1 0.6
СЗ 2 6000 м 9/6 360 м
[Sc Ac As Ci sp]
+23.8 +23.4 98 +32 +32 очень
душно
1011.1 1007.9
СЗ 2 7000 м в посл. час туман 6/4 240 м
[Sc As op Ci fib]
+24.0 +23.6 98 +33 +34 очень
душно
1012.8 1009.6 +23.2 5
ЮВ 2 10 км 6/4 360 м
[Sc As trans Ci fib]
+30.2 +24.1 70 +42 +49 опасность
перегрева
1012.8 1009.6
Ю 3 10 км 6/4 360 м
[Cu med, cong As trans Ci fib]
+31.2 +25.2 70 +45 +51 опасность
перегрева
1009.8 1006.6
Ю 3 10 км 6/4 360 м
[Cu med, cong As trans Ci fib]
+30.0 +24.5 72 +42 +43 опасность
перегрева
1008.3 1005.1
ЮВ 2 10 км 5/3 360 м
[Sc As trans Ci fib]
+27.6 +24.4 83 +39 +39 очень
душно
1010.6 1007.4 +31.4
штиль 0 6000 м 5/3 360 м
[Sc As trans Ci fib]
+26.2 +24.7 91 +37 +37 очень
душно
1012.4 1009.1
штиль 0 6000 м 5/3 360 м
[Sc As trans Ci fib]
+25.2 +23.9 93 +35 +35 очень
душно
1011.2 1008.0
штиль 0 6000 м 5/3 360 м
[Sc As trans Ci fib]
+24.8 +23.8 94 +34 +34 очень
душно
1010.2 1007.0
штиль 0 4000 м в посл. час туман 5/4 300 м
[Sc As trans Ci fib]
+25.2 +24.8 98 +36 +37 очень
душно
1012.0 1008.8 +23.8
ЮВ 4 10 км 5/5 360 м
[Sc As trans Ci fib]
+30.2 +24.4 71 +42 +47 опасность
перегрева
1011.4 1008.2
ЮВ 2 10 км 9/6 330 м
[Cu med, cong As trans Ci fib]
+31.0 +25.0 70 +44 +48 опасность
перегрева
1009.1 1005.9
ЮВ 2 8000 м гроза без осадков 9/6 330 м
[Cb calv As op Ci fib]
+28.2 +25.6 86 +42 +42 опасность
перегрева
1008.0 1004.8 4
ЮВ 2 7000 м {гроза} 8/5 360 м
[Sc As op Ci fib]
+26.9 +24.7 88 +38 +38 очень
душно
1010.0 1006.8 +32.6 4
штиль 0 6000 м 8/5 360 м
[Sc As trans Ci fib]
+26.5 +24.8 90 +38 +38 очень
душно
1012.0 1008.7
штиль 0 6000 м 8/5 360 м
[Sc As trans Ci fib]
+25.5 +24.3 93 +35 +35 очень
душно
1011.1 1007.9
штиль 0 6000 м 8/5 360 м
[Sc As trans Ci fib]
+24.8 +24.1 96 +34 +34 очень
душно
1010.2 1007.0
штиль 0 800 м туман местами 6/3 360 м
[Sc As trans Ci fib]
+25.2 +24.7 97 +35 +37 очень
душно
1011.4 1008.2 +24.6 4
В 5 9000 м 8/5 330 м
[Cu med, cong As trans Ci fib]
+31.2 +24.0 66 +43 +46 опасность
перегрева
1011.5 1008.3
Ю 2 7000 м осадки на расстоянии 8/6 330 м
[Cu Sc As op Ci fib]
+31.2 +24.6 68 +44 +49 опасность
перегрева
1009.1 1005.9 0.3
ЮВ 3 8000 м {дождь} 9/6 330 м
[Cb cap As op Ci fib]
+27.4 +24.8 86 +39 +40 очень
душно
1007.9 1004.7 7
штиль 0 7000 м {дождь} 8/5 360 м
[Sc As op Ci fib]
+26.4 +25.0 92 +38 +38 очень
душно
1009.5 1006.2 +32.3 7
В 1 5000 м 8/5 360 м
[Sc As op Ci fib]
+26.2 +24.7 91 +37 +37 очень
душно
1011.2 1007.9
В 1 5000 м 8/5 360 м
[Sc As op Ci fib]
+25.6 +24.1 91 +35 +35 очень
душно
1010.0 1006.7
штиль 0 5000 м 8/5 360 м
[Sc As op Ci fib]
+24.8 +23.8 94 +34 +34 очень
душно
1009.6 1006.4
штиль 0 10 км 5/3 360 м
[Sc As op Ci fib]
+25.2 +24.5 96 +35 +37 очень
душно
1011.1 1007.9 +24.6 7
В 3 8000 м слаб. морось 9/6 360 м
[Cb calv As op Ci sp]
+29.8 +25.5 78 +44 +47 опасность
перегрева
1011.2 1008.0 0.0
Местоположение метеостанции Пангкалан-Бун (Индонезия): широта -2.70 долгота 111.70 высота над уровнем моря 25 м.
В архиве по умолчанию представлена погода в Пангкалан-Буне за последнюю неделю. Архивные данные за месяц целиком и за предыдущие месяцы, начиная с января 2011 года, Вы можете получить, выбрав интересующий диапазон дат из раскрывающегося списка и нажав кнопку "Найти!".
*Определитесь, кто Вы:
Внимание! Время в таблицах - всемирное. Для получения местного времени необходимо прибавить поправку, которая равна 7 ч.
Смотрите также архив погоды в соседних городах и на ближайших метеорологических станциях:
Партнеры нашего сайта:      
Пояснения к столбцам:
  • Ветер - указаны скорость ветра в м/с - средняя за 10 мин, порывы в срок и между сроками (в фигурных скобках) и направление, откуда дует ветер: С - северный,
  • СВ - северо-восточный, В - восточный, ЮВ - юго-восточный, Ю - южный, ЮЗ - юго-западный, З - западный, СЗ - северо-западный.
  • Видимость - горизонтальная дальность видимости в метрах или километрах. При видимости от 1 до 10 км при отсутствии осадков обычно наблюдается дымка, при ухудшении видимости до 1 км и менее - туман. В сухую погоду видимость может ухудшаться дымом, пылью или мглою.
  • Явления - указаны атмосферные явления, наблюдавшиеся в срок или в последний час перед сроком; фигурными скобками обозначены явления, наблюдавшиеся между сроками (за 1-3 часа до срока); квадратными скобками обозначены град или гололедные отложения с указанием их диаметра в мм.
  • Облачность - указаны через наклонную черту общая и нижняя облачность в баллах и высота нижней границы облаков в метрах; квадратными скобками обозначены формы облаков: Ci - перистые, Cs - перисто-слоистые, Cc - перисто-кучевые, Ac - высококучевые, As - высокослоистые, Sc - слоисто-кучевые, Ns - слоисто-дождевые, Cu - кучевые, Cb - кучево-дождевые. Подробнее классификацию облаков см. в Атласе облаков (PDF).
  • T - Температура воздуха - температура, измеренная на высоте 2 м над землей.
  • Td - Температура точки росы - температура, при понижении до которой содержащийся в воздухе водяной пар достигнет насыщения.
  • f - Относительная влажность воздуха - влажноcть воздуха, измеренная на высоте 2 м над землей.
  • Te - Эффективная температура - температура, которую ощущает одетый по сезону человек в тени. Характеристика душности погоды. При расчете учитывается влияние влажности воздуха и скорости ветра на теплоощущения человека.
  • Tes - Эффективная температура на солнце - температура, которую ощущает человек, с поправкой на солнечный нагрев. Характеристика знойности погоды. Зависит от высоты солнца над горизонтом, облачности и скорости ветра. Ночью, в пасмурную погоду, а также при ветре 12 м/с и более поправка равна нулю.
  • P - Атмосферное давление - приведенное к уровню моря атмосферное давление.
  • Po - Атмосферное давление - измеренное на уровне метеостанции атмосферное давление.
  • Tmin - Минимальная температура - минимум температуры воздуха на высоте 2 м над землей.
  • Tmax - Максимальная температура - максимум температуры воздуха на высоте 2 м над землей.
  • R - Количество осадков - Количество выпавших осадков за период времени, мм. При наведении курсора мыши на число - период времени, за который выпало указанное количество осадков.
  • R24 - Количество осадков - Количество выпавших осадков за 24 часа, мм.
  • S - Снежный покров - Высота снежного покрова, см. При наведении курсора мыши на число - состояние снежного покрова и степень покрытия местности в баллах.